Weather History for Punta Gorda, FL

Change the Weather History Date:

Friday, February 22, 2013

  Actual Average Record
Temperature  
Mean Temperature 72 °F -  
Max Temperature 86 °F 75 °F 86 °F (2013)
Min Temperature 57 °F 53 °F 39 °F (1999)
Cooling Degree Days 6    
Growing Degree Days 22 (Base 50)    
Moisture  
Dew Point 62 °F    
Average Humidity 84    
Maximum Humidity 100    
Minimum Humidity 48    
Precipitation  
Precipitation 0.01 in - - ()
Sea Level Pressure  
Sea Level Pressure 30.07 in    
Wind  
Wind Speed 5 mph (SSE)    
Max Wind Speed 17 mph    
Max Gust Speed -    
Visibility 6 miles    
Events Fog    
Averages and records for this station are not official NWS values.
T = Trace of Precipitation, MM = Missing Value Source: NWS Daily Summary

Daily Weather History Graph

Daily Weather History Graph

Search for Another Location

Airport:

Trip Planner

Search our weather history database for the weather conditions in past years. The results will help you decide how hot, cold, wet, or windy it might be!

Date:

Astronomy

Feb. 22, 2013 Rise Set
Actual Time 6:58 AM EST 6:24 PM EST
Civil Twilight 6:34 AM EST 6:48 PM EST
Nautical Twilight 6:07 AM EST 7:15 PM EST
Astronomical Twilight 5:40 AM EST 7:42 PM EST
Moon 3:45 PM EST (2/22) 4:31 AM EST (2/22)
Length of Visible Light 12h 13m
Length of Day
11h 26m
Waxing Gibbous, 90% of the Moon is Illuminated
Feb 22
Waxing Gibbous
Feb 25
Full
Mar 4
Last Quarter
Mar 11
New
Mar 19
First Quarter

Hourly Weather History & Observations

Time (EST) Temp. Heat Index Dew Point Humidity Pressure Visibility Wind Dir Wind Speed Gust Speed Precip Events Conditions
12:53 AM 61.0 °F - 59.0 °F 93% 30.06 in 9.0 mi ENE 4.6 mph - N/A   Clear
1:53 AM 61.0 °F - 59.0 °F 93% 30.05 in 8.0 mi East 3.5 mph - N/A   Clear
2:36 AM 59.0 °F - 57.2 °F 94% 30.04 in 1.5 mi Calm Calm - N/A   Clear
2:46 AM 59.0 °F - 57.2 °F 94% 30.04 in 0.5 mi Calm Calm - N/A Fog Fog
2:53 AM 59.0 °F - 57.9 °F 96% 30.04 in 0.5 mi Calm Calm - N/A Fog Fog
3:53 AM 57.0 °F - 57.0 °F 100% 30.05 in 0.5 mi ENE 3.5 mph - N/A Fog Fog
4:53 AM 57.0 °F - 55.9 °F 96% 30.05 in 0.2 mi Calm Calm - N/A Fog Fog
5:48 AM 57.2 °F - 57.2 °F 100% 30.07 in 0.2 mi NNE 4.6 mph - N/A Fog Fog
5:53 AM 57.0 °F - 57.0 °F 100% 30.08 in 0.2 mi NNE 3.5 mph - N/A Fog Fog
6:08 AM 57.2 °F - 55.4 °F 94% 30.08 in 0.2 mi NE 3.5 mph - N/A Fog Fog
6:28 AM 57.2 °F - 55.4 °F 94% 30.08 in 0.2 mi Calm Calm - N/A Fog Fog
6:53 AM 57.9 °F - 57.0 °F 97% 30.09 in 0.5 mi Calm Calm - N/A Fog Fog
7:13 AM 59.0 °F - 57.2 °F 94% 30.09 in 0.5 mi East 3.5 mph - N/A Fog Fog
7:28 AM 60.8 °F - 59.0 °F 94% 30.09 in 1.8 mi ESE 3.5 mph - N/A   Mostly Cloudy
7:33 AM 60.8 °F - 60.8 °F 100% 30.09 in 3.0 mi ESE 3.5 mph - N/A   Mostly Cloudy
7:53 AM 63.0 °F - 62.1 °F 97% 30.10 in 5.0 mi ESE 4.6 mph - N/A   Mostly Cloudy
8:00 AM 64.4 °F - 62.6 °F 94% 30.10 in 6.0 mi ESE 5.8 mph - N/A   Clear
8:53 AM 72.0 °F - 68.0 °F 87% 30.12 in 10.0 mi SE 8.1 mph - 0.01 in   Clear
9:53 AM 78.1 °F - 69.1 °F 74% 30.11 in 10.0 mi South 13.8 mph - N/A   Scattered Clouds
10:08 AM 78.8 °F - 68.0 °F 69% 30.10 in 10.0 mi SSE 12.7 mph - N/A   Mostly Cloudy
10:53 AM 81.0 °F 83.3 °F 66.9 °F 62% 30.11 in 10.0 mi South 11.5 mph - N/A   Partly Cloudy
12:53 PM 84.9 °F 85.9 °F 63.0 °F 48% 30.07 in 10.0 mi Variable 6.9 mph - N/A   Scattered Clouds
1:53 PM 84.9 °F 87.6 °F 66.9 °F 55% 30.05 in 10.0 mi WSW 12.7 mph - N/A   Scattered Clouds
2:53 PM 86.0 °F 88.2 °F 66.0 °F 51% 30.03 in 10.0 mi SW 15.0 mph - N/A   Mostly Cloudy
3:53 PM 84.0 °F 84.9 °F 63.0 °F 49% 30.02 in 10.0 mi WSW 17.3 mph - N/A   Clear
4:53 PM 81.0 °F 82.7 °F 64.9 °F 58% 30.02 in 10.0 mi WSW 15.0 mph - N/A   Clear
5:53 PM 79.0 °F - 66.0 °F 64% 30.04 in 10.0 mi SW 9.2 mph - N/A   Clear
6:53 PM 75.0 °F - 66.9 °F 76% 30.05 in 10.0 mi SW 5.8 mph - N/A   Clear
7:53 PM 73.9 °F - 66.9 °F 79% 30.06 in 10.0 mi SW 9.2 mph - N/A   Partly Cloudy
8:53 PM 73.9 °F - 68.0 °F 82% 30.08 in 10.0 mi SSW 6.9 mph - N/A   Overcast
9:53 PM 73.0 °F - 68.0 °F 84% 30.08 in 10.0 mi SSW 8.1 mph - N/A   Mostly Cloudy
10:53 PM 69.1 °F - 66.0 °F 90% 30.08 in 10.0 mi South 4.6 mph - N/A   Clear
11:45 PM 64.4 °F - 64.4 °F 100% 30.07 in 1.5 mi Calm Calm - N/A   Partly Cloudy
11:53 PM 66.0 °F - 64.0 °F 93% 30.06 in 1.5 mi ESE 3.5 mph - N/A   Partly Cloudy
11:55 PM 66.2 °F - 64.4 °F 94% 30.06 in 3.0 mi ESE 3.5 mph - N/A   Clear